Wind_Speed
64 62 62 59 62 61 60 62 63 65 68 64 61 60 60 61 63 65 67 69 72 73 70 68 66 64 61 59 59 59 57 56 56 53 54 57 60 62 63 63 65 60 60
69 67 65 64 64 64 62 62 63 64 68 66 62 59 55 59 60 60 62 65 68 72 72 70 68 65 61 60 59 58 56 56 55 54 55 57 60 62 62 61 59 59 61
73 71 69 66 65 65 66 62 60 64 67 66 63 60 59 58 56 58 61 62 65 66 67 68 68 64 63 61 59 58 58 57 56 58 59 60 59 57 58 58 57 60 61
77 76 74 72 69 66 68 66 60 60 66 67 63 61 60 59 58 59 60 63 63 68 70 68 69 65 63 61 60 61 59 59 59 58 57 55 55 53 55 58 60 62 65
85 79 79 77 75 71 70 72 67 61 63 66 63 64 63 62 60 60 61 64 65 68 70 71 69 64 62 61 62 61 62 61 62 61 58 59 55 55 56 61 64 65 70
92 89 86 84 81 77 72 71 71 65 64 67 62 63 60 61 61 60 60 64 66 68 69 68 67 63 62 61 63 63 63 63 63 61 61 58 59 61 62 62 67 70 76
97 96 91 89 86 83 79 73 74 72 68 68 62 61 59 58 57 57 57 62 67 67 69 68 66 64 63 62 63 64 64 65 65 64 64 65 66 67 69 69 71 74 80
97 98 97 91 89 85 81 78 77 72 69 67 61 58 60 57 56 56 56 59 66 67 68 68 66 64 65 63 64 64 65 67 67 68 68 69 71 73 74 76 77 79 83
86 88 90 84 81 79 77 80 78 74 72 67 60 59 58 56 57 54 53 58 65 66 66 68 67 66 66 65 65 65 67 68 70 71 73 73 75 77 79 82 85 86 86
92 89 89 89 77 73 69 68 71 71 69 61 57 58 58 57 54 53 54 57 65 67 67 68 68 66 67 67 66 67 70 70 73 75 76 77 79 81 83 86 89 92 93
87 87 85 89 81 76 70 66 63 64 64 56 56 56 57 56 53 50 50 56 62 66 67 70 70 69 68 68 68 70 71 73 75 77 79 82 83 85 88 91 93 95 97
71 76 79 77 76 75 72 68 64 61 60 53 53 55 57 53 50 48 50 56 61 64 66 68 70 70 69 69 70 72 74 75 77 79 82 84 86 88 91 94 97 99 102
52 56 68 68 66 65 64 67 68 60 56 54 51 56 56 53 48 48 49 53 61 64 66 68 69 69 69 70 71 71 74 77 79 82 85 87 89 92 95 98 101 104 107
43 44 55 57 58 51 53 60 59 57 53 49 52 55 53 51 49 51 51 53 61 65 66 67 67 68 70 71 72 74 76 78 81 84 87 90 92 96 99 102 105 109 113
31 34 45 48 46 41 50 52 54 52 47 48 51 50 49 51 52 53 52 54 59 64 67 66 68 69 71 72 74 75 78 81 84 87 90 93 97 100 104 107 111 116 121
24 30 41 39 37 44 47 50 47 46 47 46 47 47 51 52 52 53 54 54 57 62 65 67 68 70 72 73 74 77 80 83 86 89 93 98 101 104 107 112 116 123 125
19 33 35 32 36 41 44 44 44 45 43 44 46 48 49 51 52 53 55 54 54 59 63 66 68 69 71 72 75 79 82 85 89 93 98 101 105 108 111 117 122 123 123
28 27 28 31 34 37 38 40 41 41 44 45 46 47 49 51 54 54 54 54 53 56 60 64 67 68 70 74 77 80 84 88 93 97 101 105 108 113 118 121 121 118 119
25 25 28 32 35 36 37 38 40 39 40 42 44 46 48 49 50 50 50 48 50 55 58 62 65 68 71 76 79 83 87 92 96 101 105 109 113 119 121 117 115 119 123
23 25 26 28 30 31 33 34 34 37 39 44 45 46 48 48 47 45 43 45 48 52 56 60 63 68 73 77 82 86 90 95 99 105 111 115 118 117 113 115 120 121 127
16 18 20 21 24 27 29 32 35 38 39 41 45 43 41 40 38 37 38 42 46 51 55 60 65 70 75 80 84 90 95 100 105 111 115 117 111 110 116 120 124 128 132
8 19 23 25 27 29 31 33 36 36 35 34 32 31 30 30 31 34 38 42 47 53 59 64 68 73 78 83 91 96 101 106 109 113 109 105 111 117 121 125 129 132 118
12 13 13 13 15 16 18 19 18 18 18 20 21 23 26 29 33 38 43 48 54 59 64 68 74 79 85 90 96 101 105 109 105 101 105 112 117 122 126 129 125 109 101
12 11 11 9 8 8 8 9 11 15 18 21 24 28 31 36 40 45 50 55 60 65 70 76 81 87 92 96 100 102 99 95 99 106 113 118 122 125 127 115 103 95 87
7 8 7 8 9 9 11 14 16 20 23 27 31 35 39 44 49 53 58 63 68 73 78 83 87 90 93 94 91 91 94 99 104 113 118 122 125 120 106 97 90 82 78
9 9 11 12 13 15 17 19 22 26 31 35 39 44 48 52 57 61 66 70 75 79 82 84 85 85 83 84 89 94 99 105 112 117 121 121 109 99 93 86 78 73 70
Wind_Direction
261 262 265 266 271 272 264 262 259 261 262 261 262 262 261 262 260 259 260 261 259 259 260 261 265 266 271 274 275 277 281 281 281 282 281 280 279 279 281 282 281 281 282
259 260 261 264 269 272 272 268 263 261 262 262 262 262 264 262 261 260 260 260 261 260 260 260 262 266 269 273 276 279 279 280 283 285 285 283 282 281 280 281 282 282 280
259 260 260 261 264 269 273 271 268 264 263 262 263 263 262 263 263 260 259 259 258 258 258 258 259 264 267 271 276 277 278 281 284 285 284 283 282 280 281 282 281 279 279
257 259 260 262 263 264 267 271 270 269 265 263 262 261 261 261 262 260 258 256 255 254 255 257 259 261 265 268 273 276 278 280 281 284 284 281 280 279 282 282 282 283 284
252 256 260 260 260 262 266 270 272 275 269 266 262 262 260 260 260 263 260 256 256 255 255 256 257 260 262 266 270 274 276 279 280 284 281 281 278 280 279 281 283 283 285
255 255 253 256 259 261 262 265 269 270 270 267 265 265 264 262 260 261 260 254 254 255 255 257 257 260 262 265 269 272 276 279 280 281 280 277 279 280 281 281 284 287 288
260 259 258 259 258 259 261 261 264 268 268 266 264 267 269 266 264 263 264 251 250 253 253 255 256 258 261 264 267 271 274 277 279 279 280 279 280 282 281 283 284 286 288
255 256 257 256 257 258 258 258 260 262 264 263 264 267 268 271 268 267 263 248 246 249 251 253 255 257 260 263 266 269 273 276 278 280 280 281 282 283 284 285 286 287 290
255 253 255 251 252 254 253 254 255 256 259 260 262 263 266 269 271 266 261 247 242 246 248 251 254 256 259 263 266 270 273 275 278 279 281 283 283 284 285 287 288 289 289
253 248 249 251 246 249 249 250 249 250 252 257 259 262 265 266 266 266 262 247 243 245 248 250 252 255 258 262 267 270 273 275 277 280 282 284 285 286 288 289 290 290 291
246 246 245 246 243 242 245 248 245 245 247 252 254 258 263 266 267 265 258 248 246 247 249 250 253 255 259 263 267 269 272 276 278 281 283 285 286 288 288 289 290 292 294
247 243 241 240 241 238 237 242 242 244 245 248 251 256 261 263 264 266 259 250 248 249 249 251 253 256 259 263 267 270 273 277 280 282 284 285 287 288 289 291 293 295 296
248 240 235 234 234 231 230 234 239 242 241 245 247 255 257 260 262 265 264 254 250 250 251 253 255 257 261 263 268 272 276 279 282 283 285 287 289 290 292 293 295 297 298
246 237 225 226 228 224 224 224 231 234 238 240 247 254 254 258 263 266 267 260 254 254 255 255 257 259 263 266 270 275 278 280 283 285 287 289 291 292 294 296 297 299 301
234 223 213 219 221 220 212 215 223 229 235 238 246 250 253 257 262 266 268 267 260 257 257 258 259 261 264 268 272 276 279 282 285 288 290 292 293 295 297 298 300 302 302
217 204 202 208 210 205 206 214 222 228 231 238 246 249 251 256 263 268 269 270 265 259 259 260 261 262 266 269 274 278 282 285 288 290 292 293 296 297 299 301 302 302 302
182 183 193 197 197 200 209 218 221 224 234 243 247 250 255 260 266 269 272 274 269 263 261 262 263 265 268 272 277 281 285 288 290 291 293 296 297 299 301 302 303 302 301
155 171 180 184 191 201 210 214 219 230 238 243 248 254 259 264 268 272 273 272 268 264 265 265 266 268 272 276 281 285 287 289 291 294 296 298 300 302 302 303 303 302 301
144 156 168 181 192 198 206 214 224 233 244 251 255 259 263 268 271 272 271 268 267 266 268 268 269 272 276 281 284 287 289 291 294 296 299 299 300 303 303 302 300 301 306
146 158 172 185 195 205 214 223 236 246 252 257 260 263 267 270 271 269 268 268 269 270 272 271 273 276 281 284 287 289 292 294 296 297 299 300 302 302 301 300 302 306 307
165 180 192 203 212 221 229 235 244 252 256 258 263 267 267 268 267 268 271 273 275 275 275 276 279 282 286 288 290 292 294 295 297 298 299 301 302 300 300 302 307 309 308
143 211 221 228 233 238 243 251 256 260 261 261 263 265 263 265 272 277 278 278 278 278 280 282 284 287 290 292 293 294 296 297 298 299 301 301 301 301 304 307 308 309 309
149 164 181 205 220 229 234 233 234 241 248 255 261 268 273 276 277 278 279 280 281 282 285 288 290 291 292 293 294 295 296 298 300 301 302 301 302 305 307 307 308 308 309
147 148 151 165 178 197 217 235 249 257 261 267 273 277 278 279 279 280 282 283 286 288 290 290 291 292 293 294 295 297 299 300 302 304 302 303 305 306 307 308 308 309 310
179 179 198 216 229 244 252 260 266 270 274 277 279 280 280 281 282 283 284 287 288 288 289 290 291 293 294 296 298 299 301 303 303 301 303 304 305 307 308 309 310 311 310
215 217 222 232 243 252 260 268 276 281 282 282 281 281 281 282 283 284 286 287 287 289 291 293 293 294 295 297 299 301 303 303 301 303 305 306 307 308 310 311 312 312 312
Height
10634 10636 10637 10637 10635 10636 10641 10644 10646 10647 10650 10656 10660 10662 10664 10665 10665 10670 10672 10674 10676 10675 10678 10679 10678 10680 10681 10680 10679 10676 10674 10672 10670 10669 10668 10665 10663 10659 10657 10655 10652 10650 10649
10618 10620 10624 10625 10626 10624 10627 10632 10634 10637 10637 10643 10648 10651 10656 10649 10653 10657 10658 10658 10659 10660 10664 10664 10663 10666 10669 10667 10666 10664 10663 10660 10658 10657 10655 10653 10649 10645 10644 10641 10640 10638 10635
10600 10604 10609 10614 10616 10615 10614 10618 10622 10624 10624 10629 10634 10640 10641 10640 10643 10643 10645 10646 10647 10644 10646 10648 10649 10653 10655 10655 10653 10652 10650 10648 10646 10644 10642 10639 10637 10634 10629 10627 10627 10624 10622
10583 10587 10592 10598 10604 10605 10602 10603 10610 10612 10612 10614 10621 10624 10627 10629 10629 10629 10631 10632 10633 10632 10632 10633 10636 10639 10641 10641 10640 10639 10638 10636 10634 10631 10629 10626 10624 10621 10616 10612 10610 10607 10604
10564 10572 10575 10580 10586 10592 10594 10591 10596 10601 10600 10599 10605 10608 10613 10615 10614 10616 10618 10618 10619 10619 10620 10621 10622 10627 10628 10628 10628 10627 10625 10624 10622 10619 10615 10611 10609 10608 10605 10599 10595 10592 10586
10542 10553 10558 10561 10569 10575 10579 10580 10582 10588 10588 10585 10592 10593 10598 10599 10602 10604 10604 10604 10606 10605 10606 10609 10611 10613 10614 10615 10615 10614 10613 10611 10608 10605 10601 10598 10595 10592 10590 10587 10579 10574 10564
10520 10527 10537 10543 10550 10558 10563 10568 10567 10573 10575 10573 10579 10580 10584 10584 10587 10589 10589 10590 10591 10593 10593 10595 10598 10600 10601 10602 10602 10601 10600 10597 10594 10591 10588 10583 10579 10575 10572 10570 10566 10561 10550
10495 10498 10505 10519 10526 10537 10546 10551 10553 10558 10561 10562 10567 10570 10569 10572 10573 10574 10574 10576 10576 10577 10580 10582 10585 10587 10588 10589 10588 10587 10585 10583 10580 10576 10572 10568 10563 10558 10555 10551 10548 10545 10535
10469 10471 10480 10494 10503 10514 10527 10532 10536 10543 10546 10552 10558 10558 10559 10561 10560 10560 10559 10562 10563 10565 10568 10570 10572 10574 10574 10575 10575 10573 10571 10568 10565 10561 10556 10552 10547 10542 10537 10532 10525 10522 10519
10434 10447 10457 10464 10483 10494 10507 10515 10521 10529 10534 10542 10546 10545 10547 10548 10547 10548 10548 10550 10552 10555 10556 10558 10559 10560 10561 10561 10561 10559 10556 10553 10549 10544 10540 10535 10530 10524 10519 10512 10504 10495 10491
10409 10419 10434 10442 10462 10475 10490 10500 10509 10514 10522 10530 10532 10535 10535 10535 10534 10536 10536 10538 10540 10541 10544 10546 10547 10547 10548 10548 10547 10545 10541 10537 10533 10529 10524 10518 10512 10505 10498 10490 10482 10473 10464
10386 10398 10410 10424 10441 10457 10471 10486 10496 10502 10511 10519 10521 10523 10524 10524 10523 10524 10525 10528 10528 10530 10530 10532 10533 10534 10535 10535 10533 10529 10526 10521 10517 10512 10506 10500 10493 10485 10476 10468 10458 10447 10437
10367 10379 10393 10409 10426 10439 10455 10470 10483 10492 10501 10507 10511 10512 10513 10513 10515 10514 10514 10514 10515 10517 10518 10519 10520 10522 10522 10520 10517 10514 10510 10505 10500 10494 10487 10480 10472 10463 10454 10443 10434 10422 10410
10354 10366 10380 10398 10416 10427 10442 10457 10472 10482 10490 10497 10500 10502 10502 10504 10505 10504 10504 10504 10504 10505 10506 10506 10508 10508 10507 10505 10502 10498 10494 10488 10482 10475 10467 10458 10450 10440 10430 10420 10407 10395 10381
10347 10358 10375 10392 10408 10420 10435 10449 10462 10473 10482 10487 10490 10492 10494 10494 10494 10494 10494 10494 10493 10493 10493 10495 10494 10494 10492 10489 10487 10483 10477 10471 10463 10455 10447 10438 10428 10418 10405 10393 10380 10364 10348
10343 10355 10373 10389 10401 10414 10429 10443 10457 10466 10472 10477 10481 10483 10483 10483 10484 10485 10483 10482 10482 10483 10482 10482 10481 10480 10478 10475 10472 10467 10461 10453 10445 10436 10426 10416 10405 10394 10382 10368 10352 10334 10316
10346 10360 10375 10387 10401 10415 10429 10441 10450 10458 10466 10469 10472 10472 10474 10475 10476 10475 10474 10472 10471 10470 10469 10469 10468 10466 10464 10461 10457 10450 10443 10435 10426 10415 10404 10395 10382 10370 10357 10342 10325 10303 10282
10357 10369 10381 10392 10405 10418 10428 10438 10447 10453 10457 10460 10462 10464 10466 10466 10465 10464 10462 10460 10458 10457 10457 10456 10455 10453 10451 10446 10441 10434 10426 10416 10406 10394 10382 10371 10357 10343 10329 10315 10295 10273 10253
10370 10379 10390 10400 10409 10418 10426 10435 10441 10447 10451 10454 10456 10457 10457 10456 10454 10452 10450 10448 10447 10446 10446 10445 10443 10440 10437 10430 10424 10416 10407 10397 10386 10372 10358 10345 10333 10316 10300 10287 10267 10248 10230
10384 10391 10398 10406 10414 10420 10427 10433 10439 10443 10446 10446 10448 10448 10447 10446 10444 10441 10440 10439 10438 10437 10436 10433 10430 10426 10421 10415 10406 10398 10387 10376 10364 10350 10334 10319 10307 10290 10272 10255 10238 10225 10206
10395 10400 10405 10410 10415 10421 10425 10430 10434 10436 10438 10439 10439 10438 10437 10436 10434 10433 10432 10430 10429 10427 10425 10422 10417 10412 10405 10397 10387 10377 10366 10354 10342 10326 10310 10295 10278 10262 10244 10226 10211 10194 10175
10400 10404 10407 10410 10414 10418 10421 10425 10428 10429 10429 10430 10430 10430 10429 10428 10426 10425 10424 10422 10419 10417 10412 10407 10401 10396 10388 10380 10367 10353 10342 10330 10317 10301 10286 10270 10251 10231 10214 10198 10182 10163 10144
10403 10405 10407 10410 10412 10415 10418 10420 10422 10423 10424 10424 10423 10422 10421 10420 10419 10417 10415 10412 10409 10404 10398 10392 10385 10378 10369 10359 10347 10333 10319 10306 10292 10277 10260 10240 10221 10205 10188 10172 10155 10135 10119
10404 10406 10407 10410 10412 10414 10416 10417 10418 10419 10419 10418 10417 10416 10415 10413 10411 10408 10405 10401 10396 10391 10384 10376 10367 10357 10347 10336 10323 10310 10297 10284 10269 10250 10228 10212 10196 10180 10164 10146 10130 10113 10096
10405 10407 10408 10410 10411 10413 10414 10414 10415 10415 10414 10413 10411 10410 10407 10404 10401 10397 10393 10388 10382 10376 10367 10358 10348 10338 10326 10314 10301 10288 10276 10262 10246 10225 10207 10189 10171 10154 10135 10121 10107 10091 10075
10405 10406 10407 10409 10410 10410 10411 10411 10411 10410 10408 10406 10403 10401 10398 10394 10390 10385 10379 10373 10366 10357 10348 10338 10327 10316 10307 10296 10283 10269 10254 10237 10217 10198 10183 10164 10146 10129 10113 10099 10086 10073 10057